KLM609 EHAM-KSLC

Flight info

Callsign KLM609
Flight time N/A
Altitude 36000
Route BERGI M90 LONAM DCT BEKET DCT OSBON/M082F360 DCT 63N010W 65N020W 66N030W 6630N04000W/M082F380 66N050W DCT EPMAN/N0470F380 DCT 6530N07000W 64N080W 6030N09000W DCT YYQ DCT 5530N10000W/N0480F400 DCT DURUR DCT BIL DCT JAC CARTR1
Aircraft B772/H-SDE2E3FGHIJ5LORVWXY/LB1D1

Departure

Time 2026-05-06 14:06
Airport Amsterdam Airport Schiphol (EHAM)

Arrival

Time N/A
Airport Salt Lake City International Airport (KSLC)
Time Latitude Longitude Altitude Speed Heading
2026-05-06 13:24 52.31321 4.76667 3 ft 0 kts 124°
2026-05-06 13:39 52.31331 4.76643 5 ft 4 kts 124°
2026-05-06 13:39 52.31345 4.76606 6 ft 4 kts 121°
2026-05-06 13:39 52.31357 4.76574 7 ft 3 kts 108°
2026-05-06 13:40 52.31358 4.76553 6 ft 2 kts 56°
2026-05-06 13:40 52.31350 4.76540 6 ft 2 kts 36°
2026-05-06 13:40 52.31346 4.76534 7 ft 0 kts 31°
2026-05-06 13:42 52.31347 4.76536 6 ft 2 kts 31°
2026-05-06 13:43 52.31386 4.76575 5 ft 9 kts 31°
2026-05-06 13:43 52.31442 4.76636 3 ft 10 kts 34°
2026-05-06 13:43 52.31506 4.76670 3 ft 10 kts 358°
2026-05-06 13:43 52.31548 4.76592 3 ft 10 kts 275°
2026-05-06 13:44 52.31547 4.76478 3 ft 10 kts 268°
2026-05-06 13:44 52.31542 4.76333 3 ft 15 kts 266°
2026-05-06 13:44 52.31535 4.76143 3 ft 19 kts 266°
2026-05-06 13:44 52.31528 4.75927 3 ft 19 kts 266°
2026-05-06 13:45 52.31520 4.75714 3 ft 19 kts 266°
2026-05-06 13:45 52.31506 4.75311 0 ft 0 kts 265°
2026-05-06 13:45 52.31321 4.76667 3 ft 0 kts 124°
2026-05-06 13:53 52.31328 4.76648 5 ft 3 kts 123°
2026-05-06 13:53 52.31340 4.76620 5 ft 4 kts 124°
2026-05-06 13:53 52.31353 4.76587 5 ft 3 kts 115°
2026-05-06 13:54 52.31358 4.76563 7 ft 2 kts 82°
2026-05-06 13:54 52.31353 4.76545 6 ft 2 kts 38°
2026-05-06 13:54 52.31346 4.76536 7 ft 0 kts 33°
2026-05-06 13:56 52.31351 4.76542 6 ft 3 kts 33°
2026-05-06 13:56 52.31376 4.76569 6 ft 6 kts 33°
2026-05-06 13:56 52.31417 4.76612 3 ft 7 kts 32°
2026-05-06 13:56 52.31460 4.76656 3 ft 7 kts 29°
2026-05-06 13:57 52.31510 4.76672 3 ft 7 kts
2026-05-06 13:57 52.31547 4.76628 3 ft 8 kts 290°
2026-05-06 13:57 52.31549 4.76541 3 ft 8 kts 268°
2026-05-06 13:57 52.31547 4.76458 3 ft 8 kts 266°
2026-05-06 13:58 52.31543 4.76354 3 ft 12 kts 266°
2026-05-06 13:58 52.31536 4.76196 3 ft 15 kts 266°
2026-05-06 13:58 52.31530 4.76018 4 ft 15 kts 267°
2026-05-06 13:58 52.31525 4.75844 3 ft 15 kts 267°
2026-05-06 13:59 52.31519 4.75671 3 ft 15 kts 267°
2026-05-06 13:59 52.31510 4.75500 3 ft 15 kts 252°
2026-05-06 13:59 52.31443 4.75431 3 ft 9 kts 212°
2026-05-06 13:59 52.31422 4.75337 3 ft 9 kts 266°
2026-05-06 14:00 52.31418 4.75232 3 ft 9 kts 267°
2026-05-06 14:00 52.31415 4.75131 3 ft 9 kts 267°
2026-05-06 14:00 52.31411 4.75021 3 ft 9 kts 267°
2026-05-06 14:00 52.31407 4.74911 3 ft 11 kts 267°
2026-05-06 14:01 52.31403 4.74775 3 ft 13 kts 267°
2026-05-06 14:01 52.31398 4.74615 3 ft 15 kts 267°
2026-05-06 14:01 52.31393 4.74429 3 ft 17 kts 268°
2026-05-06 14:01 52.31388 4.74237 3 ft 17 kts 267°
2026-05-06 14:02 52.31307 4.74131 3 ft 17 kts 185°
2026-05-06 14:02 52.31190 4.74120 3 ft 17 kts 183°
2026-05-06 14:02 52.31073 4.74109 3 ft 17 kts 183°
2026-05-06 14:02 52.30963 4.74099 3 ft 17 kts 183°
2026-05-06 14:03 52.30839 4.74087 3 ft 17 kts 183°
2026-05-06 14:03 52.30722 4.74076 3 ft 17 kts 183°
2026-05-06 14:03 52.30629 4.74068 3 ft 13 kts 183°
2026-05-06 14:03 52.30539 4.74061 3 ft 13 kts 182°
2026-05-06 14:04 52.30449 4.74054 3 ft 13 kts 182°
2026-05-06 14:04 52.30360 4.74036 3 ft 13 kts 197°
2026-05-06 14:04 52.30276 4.73981 3 ft 13 kts 209°
2026-05-06 14:04 52.30209 4.73903 3 ft 10 kts 225°
2026-05-06 14:05 52.30190 4.73793 2 ft 10 kts 281°
2026-05-06 14:05 52.30252 4.73744 1 ft 11 kts 359°
2026-05-06 14:05 52.30400 4.73755 1 ft 43 kts
2026-05-06 14:05 52.30710 4.73785 3 ft 91 kts
2026-05-06 14:06 52.31570 4.73866 2 ft 154 kts
2026-05-06 14:06 52.32723 4.73984 423 ft 171 kts
2026-05-06 14:06 52.33899 4.73701 1200 ft 176 kts 337°
2026-05-06 14:06 52.34976 4.72707 1736 ft 188 kts 333°
2026-05-06 14:07 52.36145 4.71536 1988 ft 210 kts 333°
2026-05-06 14:07 52.37439 4.70230 2330 ft 224 kts 333°
2026-05-06 14:07 52.38771 4.68889 2773 ft 236 kts 332°
2026-05-06 14:07 52.39786 4.67875 2968 ft 248 kts 332°
2026-05-06 14:08 52.41290 4.66376 3516 ft 256 kts 332°
2026-05-06 14:08 52.42825 4.64844 4099 ft 260 kts 329°
2026-05-06 14:08 52.44109 4.62695 4627 ft 273 kts 301°
2026-05-06 14:08 52.44658 4.59738 5358 ft 271 kts 278°
2026-05-06 14:09 52.44780 4.56637 5845 ft 276 kts 274°
2026-05-06 14:09 52.44828 4.53443 6112 ft 287 kts 273°
2026-05-06 14:09 52.44863 4.50172 6804 ft 285 kts 272°
2026-05-06 14:09 52.44898 4.46998 7573 ft 277 kts 275°
2026-05-06 14:10 52.45398 4.44011 8069 ft 273 kts 306°
2026-05-06 14:10 52.46794 4.42002 8522 ft 271 kts 340°
2026-05-06 14:10 52.48618 4.41460 9054 ft 266 kts 357°
2026-05-06 14:10 52.50449 4.41189 9459 ft 271 kts 353°
2026-05-06 14:11 52.52353 4.40774 10067 ft 272 kts 352°
2026-05-06 14:11 52.54209 4.40355 10304 ft 286 kts 352°
2026-05-06 14:11 52.56273 4.39897 10409 ft 305 kts 352°
2026-05-06 14:11 52.58389 4.39436 10513 ft 324 kts 352°
2026-05-06 14:12 52.60698 4.38938 10619 ft 344 kts 352°
2026-05-06 14:12 52.63062 4.38432 11024 ft 355 kts 352°
2026-05-06 14:12 52.65572 4.37896 11743 ft 357 kts 352°
2026-05-06 14:12 52.67986 4.37380 12411 ft 362 kts 351°
2026-05-06 14:13 52.70581 4.36826 12966 ft 370 kts 351°
2026-05-06 14:13 52.73142 4.36277 13488 ft 375 kts 351°
2026-05-06 14:13 52.75715 4.35639 13932 ft 380 kts 347°
2026-05-06 14:13 52.78290 4.34709 14410 ft 382 kts 345°
2026-05-06 14:14 52.80869 4.33725 14895 ft 384 kts 345°
2026-05-06 14:14 52.83479 4.32723 15332 ft 388 kts 345°
2026-05-06 14:14 52.86107 4.31719 15708 ft 393 kts 345°
2026-05-06 14:14 52.88805 4.30693 16081 ft 397 kts 345°
2026-05-06 14:15 52.91510 4.29669 16504 ft 400 kts 345°
2026-05-06 14:15 52.94230 4.28643 16920 ft 402 kts 345°
2026-05-06 14:15 52.96966 4.27611 17319 ft 405 kts 345°
2026-05-06 14:15 52.99722 4.26571 17711 ft 407 kts 345°
2026-05-06 14:16 53.02498 4.25521 18105 ft 410 kts 345°
2026-05-06 14:16 53.05288 4.24464 18426 ft 413 kts 345°
2026-05-06 14:16 53.08101 4.23397 18740 ft 416 kts 345°
2026-05-06 14:16 53.10935 4.22327 19125 ft 418 kts 344°
2026-05-06 14:17 53.13779 4.21255 19525 ft 420 kts 345°
2026-05-06 14:17 53.16639 4.20177 19917 ft 423 kts 344°
2026-05-06 14:17 53.19515 4.19093 20291 ft 425 kts 345°
2026-05-06 14:17 53.22412 4.17998 20648 ft 428 kts 344°
2026-05-06 14:18 53.25321 4.16897 21007 ft 430 kts 344°
2026-05-06 14:18 53.28251 4.15783 21359 ft 433 kts 344°
2026-05-06 14:18 53.31157 4.14678 21694 ft 436 kts 344°
2026-05-06 14:18 53.34118 4.13550 22055 ft 438 kts 344°
2026-05-06 14:19 53.37100 4.12413 22407 ft 441 kts 344°
2026-05-06 14:19 53.40100 4.11268 22742 ft 443 kts 344°
2026-05-06 14:19 53.43118 4.10114 23087 ft 446 kts 344°
2026-05-06 14:19 53.46148 4.08954 23430 ft 448 kts 344°
2026-05-06 14:20 53.49199 4.07784 23739 ft 450 kts 344°
2026-05-06 14:20 53.52256 4.06610 24029 ft 452 kts 344°
2026-05-06 14:20 53.55335 4.05425 24326 ft 454 kts 344°
2026-05-06 14:20 53.58421 4.04235 24595 ft 456 kts 344°
2026-05-06 14:21 53.61523 4.03036 24860 ft 459 kts 344°
2026-05-06 14:21 53.64646 4.01828 25133 ft 461 kts 344°
2026-05-06 14:21 53.67758 4.00622 25429 ft 463 kts 344°
2026-05-06 14:21 53.70921 3.99395 25687 ft 465 kts 344°
2026-05-06 14:22 53.74074 3.98170 25959 ft 466 kts 344°
2026-05-06 14:22 53.77245 3.96936 26238 ft 468 kts 344°
2026-05-06 14:22 53.80420 3.95692 26508 ft 469 kts 343°
2026-05-06 14:22 53.83544 3.94111 26732 ft 469 kts 337°
2026-05-06 14:23 53.86561 3.92024 27000 ft 468 kts 331°
2026-05-06 14:23 53.89434 3.89447 27249 ft 468 kts 328°
2026-05-06 14:23 53.92283 3.86758 27496 ft 469 kts 327°
2026-05-06 14:23 53.95134 3.84044 27753 ft 471 kts 327°
2026-05-06 14:24 53.97998 3.81317 27996 ft 472 kts 327°
2026-05-06 14:24 54.00875 3.78589 28243 ft 474 kts 328°
2026-05-06 14:24 54.03757 3.75866 28492 ft 475 kts 328°
2026-05-06 14:24 54.06655 3.73136 28713 ft 477 kts 328°
2026-05-06 14:25 54.09559 3.70402 28955 ft 477 kts 328°
2026-05-06 14:25 54.12469 3.67662 29203 ft 478 kts 328°
2026-05-06 14:25 54.15386 3.64913 29411 ft 479 kts 328°
2026-05-06 14:25 54.18310 3.62152 29591 ft 481 kts 328°
2026-05-06 14:26 54.21242 3.59378 29751 ft 483 kts 328°
2026-05-06 14:26 54.24178 3.56595 29948 ft 483 kts 328°
2026-05-06 14:26 54.27117 3.53805 30142 ft 484 kts 328°
2026-05-06 14:26 54.30060 3.51005 30298 ft 484 kts 328°
2026-05-06 14:27 54.33005 3.48200 30464 ft 484 kts 328°
2026-05-06 14:27 54.35950 3.45389 30678 ft 484 kts 328°
2026-05-06 14:27 54.38886 3.42584 30887 ft 483 kts 328°
2026-05-06 14:27 54.41816 3.39778 31107 ft 482 kts 327°
2026-05-06 14:28 54.44743 3.36971 31296 ft 482 kts 327°
2026-05-06 14:28 54.47664 3.34164 31494 ft 481 kts 327°
2026-05-06 14:28 54.50586 3.31353 31696 ft 480 kts 327°
2026-05-06 14:28 54.53498 3.28545 31913 ft 480 kts 327°
2026-05-06 14:29 54.56412 3.25732 32095 ft 480 kts 327°
2026-05-06 14:29 54.59282 3.22956 32307 ft 479 kts 327°
2026-05-06 14:29 54.62183 3.20146 32507 ft 478 kts 327°
2026-05-06 14:29 54.65083 3.17332 32701 ft 478 kts 327°
2026-05-06 14:30 54.67978 3.14519 32893 ft 478 kts 327°
2026-05-06 14:30 54.70870 3.11704 33098 ft 477 kts 327°
2026-05-06 14:30 54.73763 3.08883 33292 ft 476 kts 327°
2026-05-06 14:30 54.76649 3.06063 33483 ft 476 kts 326°
2026-05-06 14:31 54.79531 3.03244 33676 ft 476 kts 326°
2026-05-06 14:31 54.82411 3.00421 33868 ft 475 kts 326°
2026-05-06 14:31 54.85288 2.97598 34050 ft 475 kts 326°
2026-05-06 14:31 54.88160 2.94774 34193 ft 475 kts 326°
2026-05-06 14:32 54.91031 2.91945 34324 ft 475 kts 326°
2026-05-06 14:32 54.93906 2.89109 34469 ft 475 kts 326°
2026-05-06 14:32 54.96781 2.86268 34589 ft 475 kts 326°
2026-05-06 14:32 54.99652 2.83427 34730 ft 475 kts 326°
2026-05-06 14:33 55.02522 2.80581 34860 ft 475 kts 326°
2026-05-06 14:33 55.05393 2.77730 34989 ft 475 kts 326°
2026-05-06 14:33 55.08266 2.74873 35125 ft 475 kts 326°
2026-05-06 14:33 55.11136 2.72013 35257 ft 475 kts 326°
2026-05-06 14:34 55.14004 2.69150 35372 ft 475 kts 326°
2026-05-06 14:34 55.16874 2.66281 35523 ft 475 kts 326°
2026-05-06 14:34 55.19737 2.63414 35643 ft 474 kts 326°
2026-05-06 14:34 55.22600 2.60542 35773 ft 474 kts 326°
2026-05-06 14:35 55.25464 2.57664 35897 ft 474 kts 326°
2026-05-06 14:35 55.28326 2.54784 35968 ft 475 kts 326°
2026-05-06 14:35 55.34057 2.49001 36059 ft 475 kts 326°
2026-05-06 14:36 55.39791 2.43197 36064 ft 475 kts 326°
2026-05-06 14:36 55.45504 2.37393 36050 ft 474 kts 326°
2026-05-06 14:37 55.51210 2.31578 36058 ft 473 kts 326°
2026-05-06 14:37 55.56907 2.25752 36062 ft 473 kts 326°
2026-05-06 14:38 55.62593 2.19917 36061 ft 472 kts 326°
2026-05-06 14:38 55.68268 2.14073 36062 ft 472 kts 326°
2026-05-06 14:39 55.73941 2.08212 36067 ft 472 kts 326°
2026-05-06 14:39 55.79609 2.02336 36064 ft 471 kts 326°
2026-05-06 14:40 55.85270 1.96448 36072 ft 471 kts 326°
2026-05-06 14:40 55.90925 1.90546 36067 ft 471 kts 326°
2026-05-06 14:41 55.96574 1.84629 36069 ft 471 kts 326°
2026-05-06 14:41 56.02193 1.78726 36055 ft 466 kts 326°
2026-05-06 14:42 56.07750 1.72869 36068 ft 462 kts 326°
2026-05-06 14:42 56.13273 1.67024 36071 ft 460 kts 326°
2026-05-06 14:43 56.18745 1.61213 36077 ft 460 kts 325°
2026-05-06 14:43 56.24247 1.55351 36078 ft 460 kts 325°
2026-05-06 14:44 56.29760 1.49458 36079 ft 461 kts 325°
2026-05-06 14:45 56.38042 1.40568 36083 ft 463 kts 325°
2026-05-06 14:45 56.43577 1.34601 36083 ft 463 kts 325°
2026-05-06 14:46 56.49113 1.28614 36082 ft 464 kts 325°
2026-05-06 14:46 56.54649 1.22605 36084 ft 464 kts 325°
2026-05-06 14:47 56.60189 1.16572 36084 ft 464 kts 325°
2026-05-06 14:47 56.65722 1.10526 36087 ft 464 kts 325°
2026-05-06 14:48 56.71248 1.04466 36084 ft 463 kts 325°
2026-05-06 14:48 56.76757 0.98403 36079 ft 462 kts 325°
2026-05-06 14:49 56.82256 0.92332 36084 ft 461 kts 325°
2026-05-06 14:49 56.87736 0.86258 36087 ft 460 kts 325°
2026-05-06 14:50 56.93204 0.80178 36088 ft 460 kts 324°
2026-05-06 14:50 56.98625 0.74129 36087 ft 459 kts 324°
2026-05-06 14:51 57.04074 0.68028 36088 ft 458 kts 324°
2026-05-06 14:51 57.09509 0.61920 36090 ft 458 kts 324°
2026-05-06 14:52 57.14931 0.55807 36082 ft 457 kts 324°
2026-05-06 14:52 57.20349 0.49677 36084 ft 456 kts 324°
2026-05-06 14:53 57.25757 0.43536 36087 ft 456 kts 324°
2026-05-06 14:53 57.31152 0.37389 36089 ft 455 kts 324°
2026-05-06 14:54 57.36543 0.31226 36089 ft 455 kts 324°
2026-05-06 14:54 57.41922 0.25054 36089 ft 455 kts 324°
2026-05-06 14:55 57.47293 0.18869 36085 ft 454 kts 324°
2026-05-06 14:55 57.52659 0.12670 36085 ft 454 kts 323°
2026-05-06 14:56 57.57112 0.07508 36087 ft 454 kts 323°
2026-05-06 14:56 57.62463 0.01286 36084 ft 453 kts 323°
2026-05-06 14:57 57.67809 -0.04953 36086 ft 453 kts 323°
2026-05-06 14:57 57.73147 -0.11204 36084 ft 452 kts 323°
2026-05-06 14:58 57.78479 -0.17471 36081 ft 452 kts 323°
2026-05-06 14:58 57.83800 -0.23746 36077 ft 452 kts 323°
2026-05-06 14:59 57.89117 -0.30039 36078 ft 451 kts 323°
2026-05-06 14:59 57.94428 -0.36348 36079 ft 451 kts 323°
2026-05-06 15:00 57.99729 -0.42666 36079 ft 451 kts 323°
2026-05-06 15:00 58.05022 -0.48997 36079 ft 450 kts 322°
2026-05-06 15:01 58.10309 -0.55345 36080 ft 450 kts 322°
2026-05-06 15:01 58.15588 -0.61705 36084 ft 450 kts 322°
2026-05-06 15:02 58.20860 -0.68079 36077 ft 449 kts 322°
2026-05-06 15:02 58.26121 -0.74464 36071 ft 449 kts 322°
2026-05-06 15:03 58.31348 -0.80829 36072 ft 449 kts 322°
2026-05-06 15:03 58.36604 -0.87253 36073 ft 449 kts 322°
2026-05-06 15:04 58.41855 -0.93693 36074 ft 449 kts 322°
2026-05-06 15:04 58.47105 -1.00155 36075 ft 449 kts 322°
2026-05-06 15:05 58.52350 -1.06635 36072 ft 449 kts 322°
2026-05-06 15:05 58.57594 -1.13137 36066 ft 449 kts 322°
2026-05-06 15:06 58.62834 -1.19657 36066 ft 449 kts 322°
2026-05-06 15:06 58.68067 -1.26193 36060 ft 449 kts 322°
2026-05-06 15:07 58.73293 -1.32743 36060 ft 448 kts 322°
2026-05-06 15:07 58.78508 -1.39305 36060 ft 448 kts 322°
2026-05-06 15:08 58.83722 -1.45888 36055 ft 448 kts 322°
2026-05-06 15:08 58.88911 -1.52519 36055 ft 446 kts 320°
2026-05-06 15:09 58.93820 -1.59801 36059 ft 444 kts 317°
2026-05-06 15:09 58.98657 -1.67238 36058 ft 444 kts 317°
2026-05-06 15:10 59.03506 -1.74699 36058 ft 445 kts 317°
2026-05-06 15:10 59.08363 -1.82160 36056 ft 446 kts 317°
2026-05-06 15:11 59.13233 -1.89651 36053 ft 446 kts 317°
2026-05-06 15:11 59.18066 -1.97109 36053 ft 447 kts 317°
2026-05-06 15:12 59.22900 -2.04597 36056 ft 447 kts 317°
2026-05-06 15:12 59.27772 -2.12174 36055 ft 448 kts 317°
2026-05-06 15:13 59.32649 -2.19788 36053 ft 448 kts 317°
2026-05-06 15:13 59.37523 -2.27425 36050 ft 449 kts 317°
2026-05-06 15:14 59.42399 -2.35095 36053 ft 449 kts 317°
2026-05-06 15:14 59.47268 -2.42783 36039 ft 449 kts 317°
2026-05-06 15:15 59.52138 -2.50501 36043 ft 449 kts 317°
2026-05-06 15:15 59.56971 -2.58191 36043 ft 450 kts 317°
2026-05-06 15:16 59.61835 -2.65961 36048 ft 450 kts 317°
2026-05-06 15:16 59.66698 -2.73758 36047 ft 450 kts 317°
2026-05-06 15:17 59.71558 -2.81579 36044 ft 450 kts 317°
2026-05-06 15:17 59.76418 -2.89433 36048 ft 451 kts 317°
2026-05-06 15:18 59.81275 -2.97310 36045 ft 451 kts 317°
2026-05-06 15:18 59.86130 -3.05217 36044 ft 451 kts 317°
2026-05-06 15:19 59.90981 -3.13147 36043 ft 451 kts 317°
2026-05-06 15:19 59.95830 -3.21103 36043 ft 451 kts 317°
2026-05-06 15:20 60.00671 -3.29080 36038 ft 451 kts 317°
2026-05-06 15:20 60.05510 -3.37083 36040 ft 451 kts 317°
2026-05-06 15:21 60.10337 -3.45099 36041 ft 451 kts 317°
2026-05-06 15:21 60.15161 -3.53141 36043 ft 451 kts 317°
2026-05-06 15:22 60.19978 -3.61204 36041 ft 451 kts 317°
2026-05-06 15:22 60.24787 -3.69283 36034 ft 450 kts 317°
2026-05-06 15:23 60.29589 -3.77383 36036 ft 450 kts 316°
2026-05-06 15:23 60.34350 -3.85447 36034 ft 450 kts 316°
2026-05-06 15:24 60.39165 -3.93635 36039 ft 449 kts 316°